Monte Cimone, Italy

1:16 PM CEST on April 22, 2018 (GMT +0200)
Monte Cimone

Weather History for LIVC - July, 2013

Change the Weather History Date:

Wednesday, July 3, 2013

  Actual Average Record
Temperature  
Mean Temperature 53 °F -  
Max Temperature 56 °F 55 °F 69 °F (2015)
Min Temperature 50 °F 46 °F 39 °F (1996)
Degree Days  
Heating Degree Days 12    
Growing Degree Days 3 (Base 50)    
Moisture  
Dew Point 39 °F    
Average Humidity 60    
Maximum Humidity 94    
Minimum Humidity 40    
Precipitation  
Precipitation 0.00 in 0.07 in - ()
Sea Level Pressure  
Sea Level Pressure 30.23 in    
Wind  
Wind Speed 9 mph ()    
Max Wind Speed 23 mph    
Max Gust Speed -    
Visibility 7.5 miles    
Events      
Averages and records for this station are not official NWS values.
T = Trace of Precipitation, MM = Missing Value Source: Averaged Metar Reports

Daily Weather History Graph

Daily Weather History Graph

Search for Another Location

Airport or City:

Astronomy

Jul. 03, 2013 Rise Set
Actual Time 5:38 AM CEST 9:04 PM CEST
Civil Twilight 5:02 AM CEST 9:40 PM CEST
Nautical Twilight 4:14 AM CEST 10:27 PM CEST
Astronomical Twilight 3:14 AM CEST 11:27 PM CEST
Moon 2:11 AM CEST (7/3) 4:55 PM CEST (7/3)
Length of Visible Light 16h 37m
Length of Day
15h 25m
Waning Crescent, 20% of the Moon is Illuminated
Jul 3
Waning Crescent
Jul 8
New
Jul 16
First Quarter
Jul 22
Full
Jul 29
Last Quarter

Hourly Weather History & Observations

Time (CEST) Temp. Dew Point Humidity Pressure Visibility Wind Dir Wind Speed Gust Speed Precip Events Conditions
12:55 AM 50.0 °F 35.6 °F 58% 30.30 in - Calm Calm - N/A   Clear
1:55 AM 50.0 °F 33.8 °F 54% 30.30 in - Calm Calm - N/A   Clear
2:00 AM 51 °F 34 °F 40%  in 31 mi Calm Calm - -  
2:55 AM 50.0 °F 32.0 °F 50% 30.27 in - Calm Calm - N/A   Clear
3:55 AM 51.8 °F 33.8 °F 50% 30.24 in - Calm Calm - N/A   Clear
4:55 AM 50.0 °F 33.8 °F 54% 30.24 in - Calm Calm - N/A   Clear
5:55 AM 51.8 °F 35.6 °F 54% 30.24 in 6.2 mi SW 13.8 mph - N/A   Scattered Clouds
6:55 AM 51.8 °F 37.4 °F 58% 30.21 in 6.2 mi SW 15.0 mph - N/A   Scattered Clouds
7:55 AM 51.8 °F 37.4 °F 58% 30.24 in 6.2 mi SW 11.5 mph - N/A   Scattered Clouds
8:00 AM 52 °F 38 °F 47%  in 31 mi SW 11.5 mph - -   Partly Cloudy
8:55 AM 51.8 °F 39.2 °F 62% 30.24 in 6.2 mi SW 13.8 mph - N/A   Unknown
9:55 AM 53.6 °F 41.0 °F 62% 30.24 in 6.2 mi SW 13.8 mph - N/A   Partly Cloudy
10:55 AM 53.6 °F 42.8 °F 67% 30.24 in 6.2 mi West 18.4 mph - N/A   Partly Cloudy
11:55 AM 53.6 °F 42.8 °F 67% 30.24 in 6.2 mi SW 18.4 mph - N/A   Partly Cloudy
12:55 PM 55.4 °F 41.0 °F 58% 30.24 in 6.2 mi WSW 20.7 mph - N/A   Partly Cloudy
1:55 PM 55.4 °F 41.0 °F 58% 30.24 in - WSW 15.0 mph - N/A   Clear
2:00 PM 56 °F 41 °F 46%  in 19 mi WSW 15.0 mph - -   Partly Cloudy
2:55 PM 55.4 °F 41.0 °F 58% 30.24 in 6.2 mi WSW 18.4 mph - N/A   Scattered Clouds
3:55 PM 55.4 °F 41.0 °F 58% 30.24 in 6.2 mi WSW 18.4 mph - N/A   Mostly Cloudy
4:55 PM 53.6 °F 41.0 °F 62% 30.24 in 6.2 mi SW 11.5 mph - N/A   Mostly Cloudy
5:55 PM 53.6 °F 41.0 °F 62% 30.21 in 6.2 mi SW 18.4 mph - N/A   Mostly Cloudy
6:55 PM 51.8 °F 42.8 °F 71% 30.18 in 6.2 mi SW 20.7 mph - N/A   Mostly Cloudy
7:55 PM 51.8 °F 41.0 °F 67% 30.18 in 6.2 mi SW 18.4 mph - N/A   Mostly Cloudy
8:00 PM 51 °F 40 °F 56%  in 19 mi SW 18.4 mph - -   Mostly Cloudy
8:55 PM 50.0 °F 39.2 °F 66% 30.18 in 6.2 mi SW 23.0 mph - N/A   Scattered Clouds
9:55 PM 50.0 °F 41.0 °F 71% 30.18 in 6.2 mi WSW 18.4 mph - N/A   Mostly Cloudy
10:55 PM 50.0 °F 44.6 °F 82% 30.18 in 6.2 mi WSW 17.3 mph - N/A   Mostly Cloudy
11:55 PM 50.0 °F 48.2 °F 94% 30.21 in 6.2 mi WSW 13.8 mph - N/A   Mostly Cloudy